Wind_Speed
64 63 64 65 66 68 68 69 70 72 74 75 76 77 78 79 80 82 83 84 85 86 88 89 91 93 94 96 97 98 99 100 101 103 105 106 107 108 109 110 112 113 114 115 116 117 118 119 120 121 121 122 122 122 123 123 123 124 124 124 125 125 125 125 125 125 126 126 127 127 127 127 127 127 127 128 128 128 128 128 127 128 128 128 129
63 63 64 65 66 67 68 68 69 71 72 74 75 76 77 77 78 79 79 80 81 82 84 85 86 87 88 89 90 91 91 93 94 96 98 99 100 101 103 104 105 106 107 109 110 111 112 114 115 116 118 119 120 121 121 122 123 124 124 125 126 126 126 127 127 128 128 129 130 130 130 130 130 130 130 131 131 131 131 131 131 131 131 131 132
63 63 64 64 66 67 67 69 70 70 71 72 74 75 76 76 77 77 77 78 79 80 81 82 83 84 84 85 86 86 87 89 90 91 92 93 94 95 96 96 97 98 99 101 102 103 104 105 107 108 110 111 112 114 115 116 117 118 120 121 122 123 124 125 125 126 127 128 129 129 130 131 131 132 132 133 133 133 133 134 134 134 134 134 135
64 65 65 65 66 66 67 69 69 69 70 71 73 73 74 75 75 76 76 76 77 77 78 79 80 80 80 82 82 83 84 86 87 87 88 90 91 91 91 92 92 93 94 95 96 97 98 99 100 101 102 103 104 105 107 107 108 110 111 112 114 115 116 117 118 120 121 122 123 124 125 127 127 128 129 130 130 131 132 132 133 133 134 135 135
65 66 67 67 67 68 68 69 69 69 70 71 72 72 72 74 75 75 75 75 75 75 76 77 77 77 78 78 79 80 81 82 83 85 86 87 87 88 88 89 89 90 91 91 92 93 94 95 96 97 98 99 100 101 101 102 102 103 104 105 106 107 108 109 111 112 113 114 115 116 117 119 120 122 122 123 124 125 125 127 127 128 129 130 131
66 67 68 68 68 69 69 70 71 70 71 72 72 72 73 74 75 75 75 75 75 75 76 76 76 76 77 77 78 78 79 80 81 83 83 83 84 85 85 86 87 88 88 88 89 89 90 91 92 93 94 95 96 96 97 98 98 99 99 100 101 102 103 103 105 106 107 108 109 110 110 111 113 115 116 116 117 118 119 120 121 122 123 123 124
66 67 68 69 70 71 71 71 72 72 73 73 73 73 74 75 76 76 76 76 76 76 76 76 76 76 77 77 78 78 79 80 82 82 81 81 82 83 84 85 86 86 86 86 87 88 88 89 89 90 91 92 92 93 93 94 94 95 96 96 97 98 98 99 100 101 102 103 104 104 105 106 107 108 110 111 112 113 114 115 115 116 117 118 119
64 66 67 69 70 71 72 73 73 74 75 75 75 76 77 77 77 77 78 78 78 78 78 77 78 78 78 78 78 79 80 82 82 81 81 81 81 83 84 85 85 85 85 86 86 87 87 88 88 89 90 90 91 91 92 92 92 93 93 94 95 95 96 97 98 98 99 100 100 101 101 102 103 104 105 106 107 108 109 110 110 112 113 113 114
58 61 63 66 68 69 71 72 73 74 75 75 76 77 78 79 79 80 80 80 81 81 80 80 80 80 80 80 80 81 82 83 83 82 82 82 82 83 85 86 86 86 86 86 87 87 88 88 89 89 90 90 91 91 92 92 93 93 94 94 94 94 95 96 97 98 98 99 99 100 100 101 101 102 103 104 105 106 107 108 108 108 109 110 111
53 55 57 59 61 63 66 68 70 72 73 74 75 76 78 78 79 80 81 82 82 82 82 82 82 82 81 81 82 83 84 85 84 83 83 83 84 85 87 87 87 87 87 87 88 89 90 90 90 91 91 92 92 92 93 93 94 95 95 95 95 96 96 97 98 99 99 99 100 100 101 101 102 103 103 104 105 106 107 108 108 108 109 109 110
53 54 55 56 56 58 60 62 64 66 67 69 71 73 75 76 78 79 80 80 81 81 82 82 82 82 82 83 84 85 86 86 86 86 86 86 87 88 89 89 89 89 89 89 90 91 91 91 92 93 93 94 94 95 95 96 97 97 97 98 98 98 98 99 100 101 101 102 102 103 103 103 104 105 105 106 107 107 108 110 110 110 110 111 111
57 57 58 58 58 60 61 62 63 64 64 65 66 67 69 71 73 75 78 79 80 80 80 80 80 80 81 82 84 85 87 87 87 88 89 90 90 91 92 91 91 91 91 92 93 93 93 93 93 94 95 95 96 96 97 98 98 99 99 99 100 100 101 101 102 103 104 104 105 105 106 106 106 107 107 108 109 109 110 111 113 112 112 113 113
60 61 61 62 62 63 63 64 66 66 67 68 68 67 67 68 68 70 72 75 77 78 78 78 78 78 79 80 81 83 84 85 87 88 90 91 92 93 94 94 94 94 94 94 95 96 95 95 96 97 97 97 98 99 99 100 101 101 101 101 102 102 103 103 104 105 106 106 106 107 107 107 108 108 109 110 110 111 112 113 114 114 114 115 115
64 63 63 65 65 65 65 66 67 68 69 70 70 70 70 69 69 68 69 71 72 73 75 76 77 78 79 79 79 80 81 83 84 86 87 88 90 92 93 94 94 95 95 96 97 97 97 98 99 99 99 99 100 101 101 102 103 103 103 103 103 104 105 105 106 107 107 108 108 108 108 109 109 110 110 111 111 112 112 113 114 115 115 116 117
69 66 65 65 66 66 66 67 67 68 70 72 73 73 73 72 71 70 70 71 71 71 72 73 74 76 77 77 78 79 80 81 82 83 84 85 86 88 89 91 92 93 94 95 96 96 97 98 98 98 99 100 101 102 102 103 103 103 104 104 104 105 105 106 106 107 108 108 108 108 109 109 110 110 111 111 111 112 112 113 113 114 115 116 117
74 71 69 68 68 68 67 67 68 69 71 73 75 77 77 77 76 74 74 74 74 73 74 74 75 75 75 76 77 78 79 80 81 82 82 83 84 85 86 88 89 90 92 93 93 94 95 95 96 96 97 98 99 101 102 102 103 103 103 104 104 104 104 105 106 106 107 107 107 108 108 108 109 109 110 110 111 111 112 112 113 113 114 115 117
78 76 75 73 73 73 70 70 71 72 73 75 78 80 81 82 81 80 80 79 78 78 77 77 77 77 77 78 79 79 79 79 80 81 82 83 83 84 85 86 88 89 91 92 92 93 93 94 94 95 96 96 98 99 100 101 102 102 103 103 103 104 104 104 105 105 106 106 107 107 107 108 108 109 109 110 110 111 111 112 113 113 114 115 116
83 81 79 78 79 78 76 75 75 75 75 77 80 83 85 86 86 86 85 85 84 83 81 80 80 80 80 81 81 81 82 82 82 83 83 84 85 85 86 87 89 90 91 92 92 93 93 94 94 94 95 96 97 98 100 101 101 102 103 103 103 103 104 104 105 105 106 106 107 107 108 108 108 109 109 110 111 111 112 112 113 114 115 115 116
88 86 84 83 83 82 81 80 79 78 77 78 80 83 86 89 90 91 91 91 89 88 86 85 85 84 84 84 84 84 84 85 85 86 86 87 88 89 89 90 91 92 93 93 94 95 95 95 95 95 96 96 98 99 100 101 102 103 103 104 104 104 104 104 105 105 106 107 108 108 109 109 109 110 110 111 112 112 113 114 114 115 116 117 118
91 91 89 88 87 86 85 83 83 82 81 81 82 85 87 90 93 95 96 97 96 94 92 91 90 90 89 89 88 88 88 88 89 89 90 90 91 92 93 93 94 95 95 96 97 97 98 98 98 98 99 99 100 101 102 103 104 104 105 106 106 105 105 105 106 106 107 108 109 110 110 111 111 112 112 113 114 115 115 116 117 118 118 119 120
92 93 93 92 92 91 90 88 88 87 87 87 88 89 91 92 95 97 99 101 101 100 99 97 96 95 94 94 94 94 94 93 93 93 94 95 95 96 97 97 98 98 98 99 100 101 101 101 101 102 102 103 104 105 106 107 107 108 108 109 109 108 107 107 108 109 110 111 112 112 113 114 114 115 116 116 117 118 118 119 120 121 121 122 123
91 92 93 94 95 95 95 94 93 93 93 93 93 94 96 97 98 100 102 103 104 104 104 102 102 101 100 100 100 99 99 99 98 98 98 99 100 100 101 102 102 102 103 103 103 104 104 104 104 105 106 107 108 109 110 110 111 112 112 113 112 112 111 111 111 112 113 114 115 116 117 118 118 119 119 120 121 121 122 122 123 124 124 125 125
90 91 91 92 94 95 97 97 97 97 96 97 97 98 100 101 102 103 104 106 106 106 106 106 105 105 105 105 104 104 104 104 103 103 103 103 104 104 105 105 106 106 107 107 107 107 107 107 107 108 109 110 111 112 113 113 114 115 116 116 115 115 114 114 115 116 117 117 118 119 120 121 122 122 122 123 124 124 124 125 125 125 126 126 126
86 87 88 89 90 92 94 95 97 97 96 97 97 98 100 102 104 106 107 108 109 109 109 109 109 109 109 109 109 108 108 108 108 107 107 107 108 108 109 109 109 110 110 111 111 111 110 110 110 111 111 112 113 114 115 116 117 118 118 118 118 117 116 117 118 119 119 120 120 121 122 123 124 124 125 125 126 125 125 125 125 125 125 125 124
83 85 86 87 88 89 90 92 94 95 95 96 95 96 98 100 102 105 107 109 110 111 112 112 112 113 113 113 112 112 112 112 112 111 111 111 111 111 112 112 112 113 113 114 114 114 114 113 113 113 114 114 115 116 117 118 119 119 119 119 119 118 117 118 119 119 120 120 121 122 123 123 123 124 124 125 124 124 123 123 123 123 123 122 122
82 83 85 86 87 89 90 91 93 94 95 96 96 96 97 98 100 102 104 107 108 110 111 112 113 113 114 114 114 115 115 115 114 114 114 114 114 114 114 114 114 115 115 116 116 116 116 116 117 117 117 117 118 118 119 120 120 120 120 120 119 118 117 117 118 118 119 119 119 120 121 121 121 122 122 123 122 122 121 121 121 121 121 121 121
82 84 85 87 88 90 91 92 93 95 96 97 98 98 99 99 100 102 103 105 106 108 108 109 110 111 112 113 114 115 115 116 116 116 116 116 116 116 115 116 116 116 117 117 118 118 118 119 119 119 119 119 120 120 121 121 121 121 120 120 119 117 117 117 117 118 118 118 119 119 120 120 121 121 122 122 121 121 120 119 119 119 119 118 118
84 85 87 89 90 92 93 94 95 96 97 98 99 100 101 102 103 104 105 106 107 107 108 109 109 109 110 111 112 113 114 114 115 115 115 115 115 115 115 116 116 117 117 118 119 119 119 119 119 119 119 120 120 121 122 122 121 121 120 120 119 117 117 117 117 118 118 118 118 118 119 119 120 120 120 120 119 118 117 117 116 116 115 115 115
88 89 90 91 92 94 95 96 97 98 99 100 100 101 102 103 104 106 107 108 109 109 109 110 110 110 110 111 111 111 112 112 112 112 112 112 112 113 113 113 114 115 116 117 118 119 119 118 118 118 119 119 119 120 120 120 120 119 119 119 117 116 116 116 116 116 116 116 116 116 117 117 118 118 118 117 116 115 114 114 114 114 114 114 113
90 91 92 93 94 94 95 96 97 98 99 100 101 101 102 103 104 106 107 109 110 111 111 111 112 112 112 112 112 111 111 111 110 110 110 110 111 111 112 112 113 114 115 116 117 117 117 117 117 117 117 118 118 118 118 118 118 118 117 117 116 116 115 115 114 114 114 114 114 114 115 116 116 116 115 115 114 113 113 114 114 114 113 113 113
90 91 92 94 94 94 94 94 95 96 97 98 100 100 101 102 103 104 106 108 109 110 111 112 112 113 113 113 112 112 112 111 110 110 111 111 112 112 113 113 114 115 116 117 117 117 117 117 117 117 117 117 117 117 117 117 117 117 117 116 116 116 115 114 114 113 113 113 114 114 115 115 115 115 115 114 113 113 114 114 114 114 113 113 113
91 91 92 93 93 92 92 93 93 94 95 95 96 97 98 99 100 101 103 105 107 108 109 110 111 112 112 112 112 112 112 111 111 112 112 113 113 114 114 115 116 117 118 118 119 118 118 118 118 118 118 118 117 118 118 118 118 118 118 118 117 117 116 115 114 114 114 114 115 116 116 116 116 115 115 114 114 114 114 114 114 113 113 113 113
92 91 91 91 91 91 91 91 92 92 92 92 92 92 92 94 95 97 99 101 102 104 105 106 108 109 109 110 110 110 111 111 112 113 113 114 114 115 116 117 118 118 119 119 119 119 119 119 119 119 118 118 118 119 119 119 119 119 119 119 118 118 117 116 116 116 116 117 117 117 117 116 116 115 115 115 115 115 114 113 113 112 112 112 113
93 92 90 89 89 88 88 89 89 89 89 89 88 87 87 88 89 91 93 95 96 98 100 101 103 104 105 106 107 108 109 110 111 112 113 113 114 115 116 117 118 118 118 118 118 118 118 118 118 118 118 119 119 119 120 120 120 121 120 120 119 118 118 117 117 117 118 118 118 118 117 116 116 115 115 115 114 114 113 112 111 111 111 112 112
90 89 88 87 87 86 85 85 86 85 85 84 84 84 83 83 84 85 87 88 90 91 94 96 98 100 101 102 104 105 106 108 109 110 111 112 112 113 114 115 115 116 116 116 117 117 117 117 118 118 118 118 119 119 120 121 121 121 120 119 119 118 118 118 118 118 118 118 118 117 116 116 115 115 114 114 113 113 112 111 111 111 111 111 110
86 84 83 84 84 83 82 81 81 81 81 81 80 80 80 80 81 82 83 84 85 86 88 90 92 94 96 97 99 100 102 103 104 105 106 107 108 109 110 111 112 113 113 114 114 115 115 116 116 116 116 117 118 119 119 120 120 119 119 118 118 117 117 116 116 117 117 117 117 116 115 115 114 114 114 113 113 112 111 110 110 109 109 108 108
79 78 78 79 80 80 79 79 78 78 78 78 77 76 77 77 78 80 80 80 81 82 84 86 87 89 90 92 93 95 96 98 99 100 101 102 103 104 105 106 107 108 109 110 111 111 112 112 113 113 114 115 116 117 117 118 117 117 117 116 115 115 114 114 114 115 116 115 115 114 114 114 113 113 113 113 112 110 109 108 108 107 106 104 104
73 72 72 73 74 75 76 76 76 76 77 76 74 73 74 74 75 76 77 77 78 79 80 82 83 84 86 87 89 90 91 92 93 94 95 96 97 98 99 100 101 103 103 104 105 106 107 108 108 109 110 111 112 113 114 114 113 113 113 112 112 111 111 111 111 112 113 113 113 113 112 112 112 112 112 111 110 108 106 105 104 103 101 101 102
70 68 67 67 69 70 71 72 73 73 74 74 73 72 72 72 72 73 74 74 75 76 77 78 79 80 82 83 85 86 87 88 89 89 90 91 91 92 93 95 96 97 98 99 100 101 102 103 104 105 106 107 108 109 109 109 108 108 108 107 107 107 107 107 107 108 109 110 110 110 110 110 110 110 109 108 107 105 103 101 100 99 98 99 101
70 67 65 64 64 65 66 68 69 69 69 70 70 70 71 70 70 70 71 72 73 73 74 75 75 77 78 79 81 82 82 83 84 85 86 87 88 89 90 92 93 94 95 96 96 97 98 99 100 101 101 102 103 104 104 103 103 103 102 102 102 103 103 103 104 104 105 105 106 106 107 107 106 106 105 104 103 101 99 97 96 96 96 98 99
72 69 66 63 63 63 64 65 65 65 65 65 66 67 68 68 68 68 68 69 70 70 71 72 73 74 75 76 77 78 78 79 80 81 82 83 85 86 87 88 89 89 90 91 91 92 93 94 95 96 96 97 98 98 98 98 98 98 98 98 98 99 99 100 100 100 100 100 101 102 102 102 102 101 100 99 98 97 96 94 94 94 95 96 96
71 70 67 63 63 64 65 64 63 62 62 62 63 64 65 65 65 65 66 66 67 67 68 69 70 71 72 73 74 75 76 76 77 78 79 80 81 82 83 84 84 85 85 86 87 88 88 89 90 91 92 93 93 93 94 93 93 93 93 93 93 94 95 95 95 95 95 95 96 97 97 98 97 96 95 94 94 94 93 93 92 93 93 93 93
67 68 67 64 63 64 66 65 64 62 61 60 61 62 64 64 63 63 63 63 64 64 65 66 67 68 69 70 71 72 73 74 75 76 76 77 78 78 79 80 80 81 81 82 83 84 85 86 86 87 88 88 89 89 89 89 88 88 89 89 89 89 90 90 89 89 90 91 91 92 92 92 92 91 90 90 90 91 91 91 91 92 91 91 90
64 64 64 63 63 64 65 65 65 63 61 60 60 60 62 62 62 62 62 62 62 62 62 63 64 64 65 66 68 69 70 71 72 72 73 73 74 74 75 76 77 78 79 80 81 82 82 83 83 84 84 85 85 85 85 85 85 84 84 85 85 84 84 84 84 85 86 87 87 87 87 87 87 87 87 87 88 89 89 90 90 89 88 88 87
64 63 62 61 61 61 62 64 64 63 61 60 60 59 60 61 60 60 61 61 61 61 61 61 62 62 63 64 65 66 67 68 68 69 69 70 70 71 72 73 74 75 76 77 77 78 78 79 80 80 81 81 81 80 81 81 81 81 80 80 80 80 79 79 80 81 81 82 82 83 82 83 83 84 85 85 86 87 87 87 87 86 86 85 85
63 63 62 60 59 59 59 61 62 61 60 59 59 58 59 59 59 59 59 59 59 59 60 60 61 61 62 62 63 64 65 65 66 67 67 68 68 69 69 70 71 72 72 73 73 74 75 76 76 77 77 77 76 76 77 77 77 77 76 76 76 76 76 76 76 76 77 77 78 78 79 80 81 82 83 84 85 85 85 85 84 84 83 83 83
62 61 61 60 58 58 58 58 59 59 58 57 57 56 57 58 58 57 57 57 57 58 58 59 59 60 60 61 62 62 63 64 64 65 66 66 67 67 67 68 69 69 69 70 70 71 72 72 73 74 73 73 73 73 74 74 74 73 73 73 73 73 73 72 72 72 73 74 74 75 77 78 80 81 81 82 82 82 83 82 82 82 82 82 81
60 60 59 58 57 57 57 57 57 56 56 55 55 54 55 55 56 56 56 56 56 56 57 57 58 58 59 59 60 60 61 61 62 63 63 64 64 65 65 66 66 66 67 67 67 68 68 69 69 69 70 70 70 71 71 70 70 70 70 71 71 70 70 70 70 70 71 71 72 74 75 76 78 78 79 79 80 80 80 80 81 81 81 81 80
60 59 58 56 55 55 55 55 55 54 54 53 53 53 53 53 53 54 54 54 55 55 55 55 55 56 56 57 57 58 58 59 59 60 60 61 61 62 62 63 63 63 63 64 64 65 65 66 66 66 67 67 68 68 68 67 67 67 68 69 69 69 69 69 69 69 69 70 70 72 73 74 75 76 76 76 77 77 78 78 79 79 80 80 80
60 58 57 56 54 54 54 53 53 52 52 52 51 51 51 51 51 52 52 52 53 53 53 53 53 53 54 54 55 55 56 56 57 57 57 58 58 59 59 59 59 60 60 60 61 62 62 62 62 63 64 64 65 65 65 64 65 66 67 67 67 67 67 67 68 67 67 67 69 70 71 72 72 73 73 74 75 75 76 76 77 78 78 78 79
59 57 56 55 54 53 52 52 51 50 50 50 50 49 49 48 49 49 50 50 50 51 51 51 51 51 52 52 53 53 53 54 54 55 55 55 56 56 56 56 57 57 57 58 58 59 59 59 60 61 61 62 63 63 63 63 64 65 65 65 65 65 65 66 66 65 65 66 67 68 68 69 70 70 71 72 73 73 74 75 76 76 77 77 77
Wind_Direction
261 261 260 259 260 260 260 259 259 260 260 260 260 260 259 259 258 258 257 257 258 258 258 258 259 259 259 259 260 260 260 261 261 261 261 261 261 261 261 261 261 261 262 262 262 262 262 262 263 263 263 263 263 263 263 263 263 263 263 263 263 263 263 263 263 263 263 263 263 264 263 263 263 263 263 263 263 262 262 262 262 261 261 261 261
263 262 261 260 260 259 259 259 259 259 260 260 260 260 260 259 259 259 258 258 258 258 258 258 258 259 259 260 260 260 260 260 260 260 261 261 261 261 261 261 261 261 261 262 262 262 262 262 262 263 263 263 263 263 263 263 263 263 263 263 263 264 264 264 264 264 264 264 264 264 264 264 264 264 264 264 264 264 263 263 263 262 262 262 262
265 264 263 263 263 262 261 260 260 259 260 261 261 261 261 261 260 260 260 259 259 258 258 258 258 259 259 260 260 260 260 260 260 261 261 261 261 261 261 261 261 261 262 262 261 261 262 262 262 262 262 262 262 263 263 263 263 263 263 263 263 264 264 264 264 264 264 264 264 264 264 264 264 264 264 264 264 264 264 264 264 264 263 263 263
266 265 265 264 264 264 264 263 263 262 262 262 262 262 263 263 262 262 261 261 260 260 260 260 260 260 260 260 260 260 260 260 261 261 261 261 261 261 261 261 261 261 261 261 261 261 261 261 262 262 262 262 262 262 262 262 262 262 262 263 263 263 263 263 263 263 263 263 264 264 264 264 264 264 264 264 264 264 264 264 264 264 264 264 263
267 267 266 266 265 265 265 265 265 264 263 263 263 263 264 264 263 263 262 262 262 262 262 262 262 261 261 261 261 261 261 261 261 261 260 261 261 261 261 261 261 261 261 261 261 261 261 261 262 262 262 262 262 262 262 262 262 262 262 262 262 262 262 262 262 262 262 263 263 263 263 264 264 264 264 264 264 264 264 264 264 264 264 263 263
268 268 268 268 267 267 267 266 266 266 265 265 265 265 265 265 265 265 264 264 264 263 263 263 263 263 262 262 262 262 262 261 261 261 261 261 261 261 261 261 261 261 261 261 261 261 261 262 262 262 262 262 262 262 263 263 263 263 262 262 262 262 262 262 262 262 262 262 262 262 262 263 263 263 264 263 263 263 263 263 263 263 263 263 263
268 268 268 268 268 268 268 267 267 267 267 267 267 267 266 266 267 267 267 267 266 265 265 265 264 264 263 263 263 263 263 262 262 261 262 262 262 262 262 262 262 262 262 262 262 262 262 262 262 262 262 263 263 263 263 263 263 263 263 263 263 263 263 263 263 263 263 263 263 263 263 263 263 263 264 264 264 263 263 263 263 263 263 263 263
268 268 268 268 268 268 268 268 267 267 267 267 267 266 267 267 267 267 267 267 267 266 266 266 266 265 265 264 264 264 263 263 262 262 262 263 263 263 263 263 263 263 263 263 263 263 262 262 262 263 263 263 263 263 264 264 264 264 264 264 264 264 264 264 264 264 264 263 263 263 263 263 263 263 264 264 264 264 264 264 263 263 263 263 263
270 270 269 269 269 269 269 269 268 268 267 267 267 266 266 265 265 265 265 265 265 265 265 265 265 265 265 265 265 265 264 264 264 263 263 263 263 263 263 263 263 263 263 263 263 263 263 263 263 263 263 263 263 263 263 264 264 264 264 264 264 264 264 264 264 264 264 264 264 264 264 264 264 264 264 264 264 264 264 264 264 264 264 264 264
271 271 271 270 270 270 270 270 270 269 269 269 268 268 267 267 266 266 265 264 264 264 264 264 264 264 265 265 265 265 265 265 265 265 264 264 264 263 263 263 263 263 263 263 263 263 263 263 263 263 263 263 263 263 263 263 263 264 264 264 264 264 264 265 265 265 265 265 265 265 265 265 265 265 265 265 265 265 265 265 265 264 264 264 264
271 271 271 271 272 272 272 271 271 271 271 270 269 269 268 268 267 267 266 266 265 264 264 263 263 263 263 263 263 264 264 264 265 265 265 265 265 264 264 264 264 264 264 263 263 263 263 263 263 263 263 263 263 263 263 263 263 263 263 263 263 263 264 264 264 264 264 265 265 265 265 265 265 265 265 266 266 266 266 266 266 265 265 265 265
273 273 274 274 274 274 275 275 275 274 274 273 271 270 269 267 266 266 266 265 265 265 265 265 264 264 263 263 263 263 263 264 264 264 265 265 265 265 265 265 265 265 264 264 264 264 264 264 264 264 263 263 263 263 263 263 263 263 263 263 263 263 263 263 263 263 263 263 263 264 264 264 264 264 265 265 265 265 266 266 266 266 266 265 265
275 276 276 277 277 277 277 278 278 278 278 277 275 274 272 270 269 267 266 265 264 264 265 265 265 264 263 263 263 263 263 263 263 263 264 264 264 264 264 264 264 264 264 264 264 265 265 265 264 264 264 264 264 264 264 264 264 264 264 264 263 263 263 263 263 263 263 263 263 263 264 264 264 264 264 265 265 265 265 266 266 266 266 266 266
277 276 276 276 276 276 277 277 278 278 278 277 276 275 274 273 272 270 269 268 267 266 265 265 265 264 264 264 263 263 263 263 263 263 263 264 264 264 264 264 264 264 264 264 264 264 264 264 264 264 264 264 264 264 264 264 264 264 264 264 264 264 264 264 264 264 264 264 264 264 264 265 265 265 265 265 265 265 265 266 266 266 266 267 266
279 277 275 275 274 274 274 275 275 276 276 276 274 273 272 271 270 270 270 270 270 269 268 267 266 265 265 264 264 263 263 263 263 263 264 264 264 264 265 265 265 264 264 264 264 264 264 264 264 264 264 264 264 264 264 264 264 264 265 265 265 264 264 264 265 265 265 265 265 265 265 265 265 265 265 265 265 265 265 265 266 266 266 267 267
280 279 277 276 275 273 272 273 273 274 274 274 272 271 270 269 268 268 268 268 268 269 269 269 268 267 267 266 265 264 264 263 263 263 263 264 264 265 265 266 266 265 265 265 264 264 264 264 264 264 264 264 265 265 265 265 265 265 265 265 265 265 265 265 265 265 265 265 265 265 265 265 265 265 265 265 265 265 265 266 266 266 266 267 267
280 279 279 278 277 275 273 273 273 273 273 273 272 271 270 269 268 267 266 266 266 266 266 267 268 268 268 267 267 266 266 265 265 265 264 264 264 265 265 266 266 266 266 266 265 265 265 265 265 265 265 265 265 265 265 265 265 265 265 265 265 265 265 265 265 265 265 265 265 265 265 265 265 265 265 265 265 265 266 266 266 266 266 267 267
279 279 278 277 276 275 274 273 272 272 272 272 271 272 272 271 270 269 267 266 266 265 265 265 266 266 266 267 267 267 267 267 267 267 266 266 266 266 266 266 266 266 266 266 266 266 266 265 265 265 265 265 265 265 265 265 265 265 265 265 265 265 265 266 266 266 266 266 266 266 266 266 266 266 266 266 266 266 266 266 266 267 267 267 267
278 277 276 274 273 272 271 271 270 269 268 268 269 270 272 272 272 272 271 269 268 267 266 266 266 266 265 266 266 267 267 267 267 267 267 266 266 266 265 265 266 266 266 267 267 267 267 266 266 266 266 266 266 266 266 266 266 266 266 266 266 266 266 266 267 267 267 267 267 267 267 267 267 267 267 267 267 267 267 267 268 268 268 268 269
278 277 275 273 272 270 269 268 267 266 265 264 264 266 268 270 272 272 272 272 271 270 269 268 268 267 267 266 266 267 267 267 267 267 267 267 267 266 266 266 265 266 266 266 266 266 267 267 267 267 267 267 266 266 267 267 267 267 267 267 267 267 267 267 267 268 268 268 268 268 268 268 268 268 269 269 269 269 269 269 269 269 270 270 270
276 275 275 274 272 270 268 266 265 264 263 262 262 263 264 266 268 270 271 272 272 272 272 271 271 270 269 269 268 268 268 268 268 268 268 268 268 267 267 267 266 266 266 266 266 266 266 266 267 267 267 267 267 267 267 267 267 267 267 268 268 268 268 268 268 268 268 268 268 269 269 269 269 269 270 270 270 270 270 271 271 271 271 271 272
272 272 273 273 273 272 270 268 266 264 263 262 262 262 262 263 264 266 268 269 271 271 272 272 271 271 270 270 269 269 268 268 268 268 268 268 268 268 268 268 268 267 267 266 266 266 266 266 266 266 267 267 267 267 267 267 267 268 268 268 268 268 269 269 269 269 269 269 269 269 270 270 270 270 270 271 271 271 271 271 272 272 272 272 273
270 270 270 271 271 272 272 271 269 267 265 264 263 262 262 263 263 264 265 266 268 269 270 270 270 270 270 269 269 269 268 268 268 268 268 268 268 268 269 269 269 269 268 268 267 267 267 267 267 266 266 266 266 267 267 267 267 267 267 268 268 269 269 269 269 269 269 269 269 270 270 270 270 271 271 271 271 272 272 272 272 273 273 273 273
271 271 271 270 270 270 270 271 270 269 268 266 265 264 263 263 264 264 264 265 265 266 267 268 268 269 269 269 269 269 269 268 268 268 268 268 268 268 269 269 269 269 269 269 269 269 268 268 268 267 267 267 267 267 267 267 267 267 268 268 268 268 269 269 269 269 269 269 270 270 270 270 271 271 271 272 272 272 272 273 273 273 273 274 274
273 272 272 271 271 270 269 269 270 270 269 268 267 266 265 264 264 264 264 264 265 265 265 266 267 267 268 268 269 269 269 269 268 268 268 268 268 268 268 269 269 269 270 270 270 270 270 270 269 269 268 268 268 268 268 268 268 268 268 269 269 269 269 269 269 270 270 270 270 270 271 271 271 272 272 272 272 273 273 273 273 274 274 274 274
273 273 273 272 271 271 270 269 269 269 269 268 268 267 266 265 264 264 264 264 264 264 265 265 265 266 266 267 267 268 268 268 268 268 268 268 268 268 268 269 269 269 269 270 270 270 270 270 270 270 270 270 269 269 269 269 269 270 270 270 270 270 270 270 270 271 271 271 271 271 272 272 272 273 273 273 273 273 273 274 274 274 274 274 275
275 274 274 273 272 271 270 269 269 268 268 268 267 267 266 265 265 264 264 264 264 264 264 264 265 265 265 265 266 266 266 267 267 267 267 268 268 268 269 269 269 269 269 269 269 269 269 269 269 269 270 270 270 270 270 270 271 271 271 271 271 272 272 271 271 272 272 272 272 272 273 273 273 273 273 273 274 274 274 274 275 275 275 275 275
278 276 275 274 273 272 271 270 269 268 267 266 266 265 265 265 265 264 264 264 264 264 264 264 264 264 264 264 264 265 265 265 266 266 267 267 268 268 268 268 268 268 268 268 268 268 269 269 269 269 269 269 270 270 270 271 271 272 272 272 272 272 272 272 272 272 272 272 273 273 273 273 273 273 274 274 274 275 275 275 275 275 275 275 275
280 279 278 276 275 274 273 272 271 270 268 267 266 265 264 264 263 263 263 263 263 263 263 263 263 264 264 264 264 264 265 265 265 266 266 266 266 266 266 266 267 267 267 267 267 268 268 268 268 269 269 269 270 270 271 271 272 272 272 272 272 272 272 272 272 273 273 273 273 273 273 274 274 274 274 275 275 276 276 276 276 276 276 276 276
281 280 280 278 277 276 274 273 272 271 270 269 267 266 265 264 263 263 263 263 263 263 263 263 263 263 263 263 264 264 264 264 265 265 265 265 265 265 265 265 266 266 266 266 267 267 267 268 268 269 269 270 270 271 271 271 272 272 272 272 273 272 273 273 273 274 274 274 274 274 274 274 274 275 275 276 276 276 276 276 276 276 276 277 277
281 281 280 279 278 277 276 274 273 272 270 269 268 267 266 265 264 263 263 263 263 263 263 263 263 263 263 263 263 264 264 264 264 264 264 264 265 265 265 265 265 266 266 266 266 267 267 268 268 269 269 270 270 271 271 271 272 272 272 273 273 273 273 274 274 274 275 275 275 274 275 275 275 276 276 276 277 277 276 276 277 277 277 277 278
283 283 282 281 280 278 277 276 274 273 271 270 269 268 267 266 265 265 264 263 263 263 263 263 263 263 263 263 264 264 264 264 264 264 264 264 264 264 264 265 265 265 265 266 266 267 268 268 269 269 270 270 271 271 271 272 272 272 273 273 273 274 274 275 275 275 275 275 275 275 275 275 276 276 276 277 277 277 276 277 277 277 278 278 278
286 284 283 282 281 279 278 277 276 274 273 271 270 268 267 267 266 266 265 265 264 264 264 264 264 264 264 264 264 264 264 264 264 263 263 263 263 264 264 264 265 265 265 266 267 268 268 269 269 270 270 271 271 271 272 272 272 273 273 273 274 274 275 275 275 275 275 275 275 275 275 275 276 276 276 276 276 276 277 277 277 278 278 278 278
287 286 284 283 281 280 279 278 276 275 274 272 271 270 269 268 267 267 266 266 265 265 265 265 265 264 264 264 264 264 264 264 264 264 264 264 264 264 264 265 265 266 267 267 268 269 269 270 270 271 271 271 272 272 272 272 273 273 273 274 274 275 275 275 275 275 275 275 275 275 275 275 276 276 276 276 276 276 277 277 278 278 278 278 279
287 286 285 283 282 281 279 278 277 275 274 273 272 272 271 270 269 268 267 267 266 266 266 266 265 265 265 265 265 264 264 264 264 265 265 265 266 266 266 267 267 268 269 269 269 270 270 270 271 271 271 272 272 272 272 273 273 273 274 274 274 275 275 275 275 275 275 275 275 275 275 275 275 276 276 276 276 276 277 277 278 278 278 278 279
286 285 284 283 282 281 280 278 277 276 275 274 273 272 272 271 270 269 268 268 267 267 266 266 266 266 266 266 266 266 266 266 266 266 266 267 267 267 267 268 268 269 269 270 270 270 270 271 271 271 272 272 272 272 272 272 273 273 273 274 274 274 274 274 275 275 275 275 275 275 275 275 275 276 276 276 276 276 277 277 277 277 278 278 279
286 285 284 283 282 282 280 279 278 277 276 275 274 273 272 272 271 270 269 269 268 267 267 267 267 267 267 267 267 266 266 266 266 266 266 267 267 267 267 268 268 268 269 269 269 270 270 271 271 271 271 271 271 271 272 272 272 273 273 273 273 274 274 274 274 274 274 275 275 275 275 276 276 276 276 276 276 276 277 277 277 278 278 279 279
287 285 284 283 282 281 280 279 278 277 277 276 276 275 274 273 272 271 271 270 269 268 268 267 267 267 267 267 267 267 267 267 267 267 267 267 267 268 268 268 268 268 268 269 269 269 270 270 270 270 271 271 271 271 271 272 272 272 273 273 273 273 273 273 274 274 274 275 275 275 275 276 276 276 276 276 276 277 277 277 277 278 279 279 279
289 287 285 283 281 279 278 278 277 277 277 277 277 276 275 274 273 272 272 271 270 269 269 268 267 267 267 267 267 267 267 267 267 267 268 268 268 268 268 268 268 268 268 268 268 269 269 269 269 270 270 270 270 271 271 272 272 273 273 273 273 274 274 274 274 274 274 274 275 275 275 275 275 275 276 276 277 277 277 277 278 279 279 278 277
293 290 288 285 282 279 277 277 276 276 276 276 276 276 276 275 274 272 271 271 270 269 269 268 268 267 267 266 266 266 266 266 266 267 267 267 267 267 267 267 267 267 267 268 268 268 269 269 269 270 270 270 271 271 272 272 273 273 273 274 274 274 274 274 274 274 274 274 274 275 275 275 275 275 276 276 277 277 278 278 278 278 277 277 276
296 294 291 289 286 283 280 278 277 276 276 276 275 274 274 273 273 272 271 270 270 269 269 269 268 268 267 267 267 266 266 266 266 266 266 266 266 266 266 267 267 267 268 268 269 269 269 270 270 270 270 271 271 272 272 273 273 273 273 273 273 273 273 273 273 273 273 274 274 274 274 275 275 275 276 277 278 278 279 279 278 277 276 276 276
296 295 293 292 289 287 284 282 281 280 279 278 277 276 275 273 272 272 271 270 270 270 269 269 269 269 269 269 268 268 268 267 267 267 266 267 267 267 268 268 269 269 269 270 270 269 269 269 269 270 270 270 271 271 272 272 272 273 273 273 272 272 273 273 273 273 274 274 274 274 274 275 275 276 277 278 278 278 278 278 277 277 276 276 277
295 294 293 292 290 288 287 286 285 284 282 281 280 279 278 277 276 275 273 272 271 270 270 269 269 268 268 268 269 269 269 268 268 268 268 268 268 268 268 269 269 269 269 269 269 269 269 269 269 269 270 270 270 271 271 272 272 272 272 272 272 273 273 273 274 274 274 274 274 274 274 275 276 277 277 277 277 277 277 277 276 276 277 278 279
295 293 292 291 290 288 288 288 287 287 285 283 281 280 279 279 278 278 277 276 274 273 272 271 270 269 269 268 268 268 268 268 268 268 268 268 268 268 268 268 268 268 268 268 268 268 269 269 269 270 270 270 271 271 271 272 272 273 273 273 273 274 274 274 274 274 274 274 274 275 275 276 277 277 277 276 276 276 276 276 276 277 278 279 279
297 295 293 291 290 289 288 288 288 288 287 285 283 282 281 280 279 278 278 277 276 276 275 274 274 273 272 271 270 270 269 269 269 269 268 268 268 268 267 267 267 267 268 268 269 269 270 270 271 271 271 272 272 272 273 273 273 274 274 274 275 275 275 274 274 274 274 275 275 276 276 276 276 276 275 275 275 275 275 276 277 278 279 279 280
297 296 295 293 292 290 288 287 287 287 286 285 284 283 282 281 280 279 278 278 277 277 276 276 275 274 274 273 273 272 272 271 271 271 270 270 270 270 269 269 269 269 270 270 271 271 271 272 272 272 272 273 274 274 274 274 274 274 275 275 275 275 274 274 274 274 274 275 275 275 275 275 275 274 274 275 275 276 277 278 278 279 279 279 279
297 296 295 294 293 291 289 287 286 285 285 284 284 283 282 281 281 280 279 278 278 277 276 276 275 275 274 274 273 273 272 272 272 271 271 271 271 271 271 271 271 271 271 271 271 271 271 272 272 272 273 273 274 273 273 273 274 274 275 275 274 274 274 274 274 274 273 273 273 273 273 273 274 274 275 276 277 277 278 279 280 280 280 280 279
297 296 295 295 294 292 290 288 287 286 285 284 283 282 281 280 280 280 279 278 277 277 276 276 275 275 274 274 273 273 272 272 271 271 271 271 271 271 271 271 271 271 271 271 271 271 271 271 271 272 272 272 272 272 272 272 273 274 274 273 273 273 273 273 273 272 272 272 272 273 273 273 274 275 276 277 278 278 279 280 280 280 280 281 281
298 297 297 296 294 292 290 289 288 287 286 285 283 282 281 280 280 279 279 278 278 277 277 276 275 275 274 274 273 273 272 272 272 271 271 271 271 270 270 270 270 271 270 270 270 270 270 270 270 271 271 271 271 271 272 272 273 272 272 272 272 272 273 272 273 273 273 273 273 273 274 274 275 275 276 277 278 278 279 279 280 280 281 281 282
299 298 298 297 295 293 291 290 289 287 286 285 283 282 281 280 280 279 279 279 278 278 277 277 276 276 275 275 274 274 274 273 273 273 272 272 272 271 271 271 271 271 271 270 270 270 270 271 271 271 271 271 271 271 272 271 271 271 271 272 272 273 273 274 274 274 275 274 274 274 274 275 275 276 277 277 277 278 278 279 279 280 280 281 281
299 299 298 297 295 293 292 290 289 288 286 285 284 282 281 281 280 280 280 279 279 278 278 278 278 277 276 276 275 275 275 274 274 274 273 273 273 273 272 272 272 272 271 271 271 271 271 271 271 271 271 271 271 271 271 271 271 272 273 273 274 274 274 275 275 275 275 275 275 275 275 276 276 276 276 276 277 277 278 278 279 280 280 281 281
Height
10472 10475 10474 10473 10473 10472 10473 10473 10473 10471 10468 10467 10468 10468 10469 10470 10472 10472 10471 10473 10474 10472 10471 10470 10469 10468 10467 10468 10468 10468 10470 10469 10468 10467 10466 10467 10469 10471 10471 10470 10470 10470 10471 10472 10472 10473 10472 10471 10471 10472 10473 10473 10474 10475 10476 10477 10477 10478 10478 10479 10479 10479 10480 10482 10483 10483 10483 10483 10482 10483 10484 10486 10488 10489 10491 10491 10491 10493 10495 10498 10501 10503 10503 10504 10505
10464 10465 10464 10465 10464 10463 10464 10464 10463 10462 10460 10459 10458 10457 10457 10459 10459 10460 10461 10462 10462 10461 10461 10460 10458 10457 10457 10458 10458 10458 10459 10457 10456 10455 10454 10454 10455 10456 10456 10457 10457 10457 10458 10458 10459 10459 10458 10458 10458 10458 10458 10458 10459 10460 10461 10462 10462 10463 10463 10464 10464 10464 10465 10467 10467 10468 10468 10467 10466 10467 10467 10469 10471 10473 10474 10474 10475 10476 10478 10481 10483 10485 10486 10487 10488
10456 10455 10455 10455 10454 10454 10454 10453 10453 10454 10453 10450 10448 10447 10448 10448 10449 10449 10450 10450 10450 10450 10450 10448 10448 10448 10448 10448 10448 10448 10447 10445 10444 10444 10443 10442 10442 10443 10444 10445 10446 10446 10445 10445 10445 10445 10445 10445 10444 10444 10444 10444 10444 10445 10446 10447 10448 10448 10448 10449 10449 10449 10450 10451 10452 10451 10452 10451 10451 10452 10451 10451 10454 10456 10457 10457 10458 10459 10461 10463 10465 10466 10468 10469 10471
10447 10446 10446 10446 10446 10445 10444 10443 10444 10446 10445 10442 10439 10439 10439 10438 10438 10438 10439 10439 10439 10439 10438 10437 10438 10438 10438 10437 10437 10437 10436 10434 10433 10433 10432 10430 10430 10431 10432 10433 10434 10434 10433 10432 10432 10432 10433 10432 10431 10431 10431 10431 10431 10431 10432 10433 10434 10434 10434 10435 10435 10435 10435 10437 10436 10435 10435 10436 10437 10437 10435 10435 10437 10439 10440 10441 10442 10443 10443 10445 10446 10447 10449 10450 10452
10438 10437 10436 10437 10436 10436 10435 10434 10434 10435 10435 10432 10431 10431 10430 10428 10426 10427 10428 10429 10429 10429 10428 10427 10427 10428 10427 10427 10426 10426 10425 10424 10423 10421 10420 10421 10420 10420 10421 10422 10421 10420 10420 10420 10421 10420 10420 10419 10419 10419 10418 10418 10418 10418 10419 10420 10421 10421 10421 10421 10421 10421 10422 10423 10422 10421 10421 10421 10422 10422 10421 10421 10421 10421 10423 10425 10426 10426 10427 10428 10429 10430 10431 10432 10433
10429 10428 10426 10427 10426 10426 10426 10425 10424 10425 10423 10422 10423 10423 10421 10418 10416 10417 10418 10419 10418 10418 10417 10417 10417 10417 10417 10416 10415 10415 10414 10413 10411 10409 10410 10411 10410 10410 10410 10409 10408 10408 10409 10410 10409 10409 10408 10408 10408 10407 10406 10406 10405 10405 10406 10407 10407 10407 10407 10407 10407 10408 10409 10409 10407 10407 10407 10407 10408 10409 10409 10409 10407 10406 10406 10408 10410 10410 10411 10411 10412 10414 10414 10415 10417
10421 10419 10418 10417 10416 10416 10416 10415 10415 10414 10412 10413 10414 10413 10410 10409 10408 10408 10408 10407 10407 10407 10407 10407 10407 10406 10406 10405 10404 10404 10404 10401 10398 10398 10400 10401 10400 10399 10397 10396 10396 10397 10398 10399 10398 10397 10397 10397 10396 10396 10395 10394 10394 10394 10394 10394 10395 10395 10395 10395 10395 10395 10395 10395 10394 10394 10394 10394 10394 10395 10395 10395 10395 10393 10392 10392 10394 10394 10395 10396 10397 10398 10398 10399 10401
10413 10411 10410 10408 10407 10406 10405 10404 10405 10404 10402 10403 10403 10402 10400 10400 10399 10398 10397 10396 10395 10395 10396 10396 10395 10395 10394 10394 10394 10393 10391 10387 10386 10389 10390 10390 10389 10387 10385 10384 10384 10385 10386 10387 10386 10386 10386 10385 10385 10385 10384 10384 10383 10383 10382 10382 10383 10382 10382 10382 10382 10383 10382 10382 10381 10381 10381 10381 10382 10382 10382 10382 10382 10381 10380 10378 10378 10379 10379 10381 10383 10382 10382 10384 10385
10406 10403 10402 10400 10398 10397 10395 10394 10394 10393 10392 10393 10393 10391 10390 10389 10388 10387 10387 10386 10384 10384 10385 10385 10384 10383 10383 10383 10383 10380 10378 10375 10376 10378 10379 10378 10377 10375 10373 10372 10372 10373 10375 10375 10374 10374 10373 10373 10373 10373 10373 10373 10373 10372 10371 10371 10371 10370 10370 10370 10371 10371 10370 10369 10369 10368 10368 10369 10369 10369 10368 10368 10368 10368 10367 10366 10365 10365 10364 10365 10368 10368 10367 10368 10369
10399 10396 10394 10392 10390 10388 10387 10385 10383 10382 10382 10382 10381 10380 10378 10377 10377 10376 10374 10373 10373 10373 10373 10373 10372 10372 10372 10372 10370 10368 10366 10364 10365 10366 10366 10366 10366 10363 10361 10360 10361 10362 10363 10363 10362 10361 10361 10361 10361 10361 10361 10361 10361 10360 10360 10359 10358 10358 10358 10358 10359 10359 10358 10357 10356 10356 10356 10356 10356 10356 10356 10356 10355 10354 10353 10353 10353 10352 10350 10349 10351 10355 10354 10353 10354
10391 10389 10386 10385 10383 10381 10379 10377 10374 10373 10373 10372 10370 10369 10368 10367 10365 10363 10361 10360 10360 10359 10360 10361 10361 10362 10361 10359 10357 10356 10354 10353 10354 10355 10354 10353 10353 10351 10349 10349 10350 10351 10350 10350 10349 10348 10348 10349 10349 10349 10348 10348 10348 10348 10347 10347 10346 10346 10345 10346 10347 10346 10346 10345 10344 10343 10342 10343 10342 10342 10342 10342 10342 10341 10340 10339 10339 10339 10338 10335 10334 10338 10340 10339 10339
10383 10382 10379 10377 10375 10373 10370 10368 10365 10364 10362 10361 10359 10358 10358 10356 10354 10353 10350 10348 10347 10347 10347 10348 10348 10349 10348 10346 10345 10343 10342 10343 10344 10342 10341 10341 10340 10338 10337 10338 10338 10338 10338 10337 10336 10335 10336 10337 10336 10335 10334 10335 10335 10334 10334 10333 10333 10332 10333 10333 10333 10333 10333 10332 10331 10329 10329 10329 10329 10328 10329 10329 10329 10328 10327 10326 10325 10325 10325 10322 10319 10321 10324 10323 10324
10377 10375 10372 10369 10366 10364 10362 10359 10356 10354 10351 10349 10347 10346 10346 10344 10343 10342 10339 10337 10336 10336 10336 10336 10336 10336 10335 10334 10333 10332 10332 10333 10331 10329 10328 10328 10327 10325 10324 10324 10324 10325 10325 10324 10322 10321 10323 10324 10322 10321 10321 10321 10321 10320 10320 10319 10318 10318 10319 10319 10319 10319 10318 10317 10316 10316 10315 10315 10315 10315 10315 10315 10315 10314 10313 10312 10312 10311 10310 10308 10305 10306 10307 10306 10306
10369 10368 10364 10361 10358 10356 10354 10351 10347 10344 10340 10337 10336 10334 10333 10332 10331 10330 10328 10326 10326 10326 10325 10325 10324 10323 10322 10323 10323 10322 10321 10321 10320 10318 10317 10316 10315 10313 10312 10311 10312 10312 10311 10310 10309 10309 10310 10309 10307 10307 10308 10307 10306 10306 10305 10304 10304 10304 10304 10305 10305 10305 10304 10303 10302 10301 10301 10300 10300 10300 10301 10300 10300 10299 10298 10298 10297 10296 10296 10294 10292 10292 10291 10289 10289
10356 10358 10355 10352 10350 10348 10346 10342 10338 10335 10330 10327 10324 10322 10321 10320 10319 10319 10318 10316 10315 10314 10314 10313 10312 10311 10311 10312 10311 10310 10309 10309 10308 10307 10306 10304 10303 10301 10300 10299 10299 10298 10297 10296 10295 10295 10295 10294 10294 10294 10294 10293 10292 10291 10290 10289 10289 10289 10289 10290 10290 10290 10289 10289 10287 10286 10286 10285 10285 10285 10285 10285 10285 10284 10283 10282 10282 10282 10281 10280 10279 10278 10277 10275 10273
10342 10344 10344 10342 10339 10337 10337 10334 10330 10326 10321 10317 10313 10311 10310 10309 10308 10308 10307 10305 10305 10304 10302 10301 10300 10299 10300 10299 10297 10297 10297 10297 10296 10295 10294 10293 10291 10290 10289 10287 10285 10284 10283 10282 10282 10282 10281 10281 10281 10281 10280 10279 10278 10276 10275 10274 10274 10274 10274 10274 10274 10274 10274 10274 10273 10272 10271 10271 10271 10270 10270 10270 10269 10269 10268 10267 10267 10267 10266 10265 10265 10264 10263 10262 10259
10329 10330 10331 10331 10327 10326 10327 10325 10320 10316 10311 10307 10303 10300 10298 10297 10295 10295 10294 10293 10294 10293 10291 10290 10288 10288 10287 10286 10284 10284 10284 10284 10284 10282 10282 10281 10280 10279 10277 10275 10273 10271 10269 10268 10268 10268 10268 10267 10267 10267 10266 10266 10264 10262 10261 10260 10259 10259 10259 10259 10259 10259 10259 10259 10258 10257 10256 10256 10256 10255 10255 10255 10255 10254 10253 10252 10252 10251 10250 10250 10250 10249 10248 10248 10246
10315 10317 10317 10317 10314 10313 10315 10313 10309 10306 10302 10297 10292 10288 10286 10283 10281 10280 10280 10280 10280 10280 10279 10279 10277 10276 10275 10273 10272 10272 10271 10271 10271 10269 10268 10268 10268 10267 10265 10263 10260 10258 10257 10255 10254 10254 10254 10254 10254 10253 10253 10252 10251 10249 10247 10246 10245 10245 10244 10243 10244 10244 10244 10244 10243 10242 10241 10241 10240 10239 10239 10239 10239 10238 10238 10237 10236 10235 10235 10235 10235 10234 10233 10233 10231
10299 10300 10301 10301 10300 10300 10301 10299 10296 10294 10291 10287 10282 10278 10274 10269 10267 10265 10264 10264 10264 10265 10265 10265 10264 10263 10262 10262 10260 10259 10258 10257 10256 10256 10255 10254 10254 10252 10251 10250 10248 10246 10245 10243 10242 10240 10240 10240 10240 10240 10239 10239 10237 10235 10233 10232 10231 10230 10229 10228 10228 10229 10230 10229 10228 10228 10227 10225 10224 10223 10222 10222 10222 10222 10221 10220 10219 10219 10219 10218 10218 10217 10217 10217 10215
10282 10281 10281 10282 10282 10283 10284 10283 10282 10280 10278 10276 10272 10268 10263 10258 10254 10250 10248 10247 10247 10248 10248 10249 10250 10249 10249 10249 10248 10246 10245 10244 10242 10241 10240 10239 10238 10237 10237 10236 10234 10233 10232 10231 10229 10227 10227 10226 10226 10226 10226 10224 10223 10221 10219 10218 10216 10215 10214 10213 10213 10214 10215 10215 10214 10213 10212 10210 10208 10207 10206 10206 10206 10205 10204 10203 10202 10202 10202 10201 10201 10200 10200 10199 10199
10267 10264 10262 10262 10261 10263 10264 10265 10265 10265 10263 10262 10259 10256 10253 10249 10244 10238 10235 10232 10231 10231 10232 10233 10233 10233 10234 10234 10233 10231 10230 10229 10228 10227 10225 10224 10223 10222 10221 10220 10219 10219 10218 10217 10216 10214 10213 10213 10213 10212 10211 10209 10208 10206 10205 10203 10202 10201 10199 10198 10198 10198 10200 10200 10199 10198 10196 10194 10193 10192 10190 10189 10189 10189 10188 10186 10186 10185 10185 10184 10183 10183 10182 10181 10181
10253 10250 10247 10244 10241 10241 10242 10244 10246 10247 10246 10246 10244 10242 10239 10236 10233 10228 10224 10220 10217 10216 10216 10217 10217 10217 10217 10217 10216 10215 10215 10214 10213 10212 10211 10209 10207 10206 10205 10204 10203 10203 10202 10201 10201 10200 10200 10200 10199 10198 10196 10194 10193 10191 10190 10189 10188 10186 10184 10183 10183 10183 10185 10185 10183 10182 10180 10179 10178 10176 10174 10172 10172 10172 10171 10169 10168 10168 10168 10167 10166 10166 10164 10163 10163
10240 10237 10234 10231 10227 10224 10223 10223 10225 10226 10227 10228 10228 10226 10224 10221 10218 10216 10212 10209 10206 10204 10202 10201 10201 10200 10200 10199 10199 10199 10198 10198 10198 10197 10196 10194 10192 10191 10189 10187 10186 10185 10185 10185 10184 10184 10185 10185 10184 10182 10181 10179 10177 10176 10175 10174 10173 10171 10169 10168 10168 10169 10169 10169 10167 10166 10164 10163 10162 10160 10157 10156 10155 10155 10154 10152 10151 10151 10151 10150 10149 10148 10146 10144 10143
10225 10222 10220 10218 10215 10212 10208 10206 10205 10205 10207 10208 10209 10209 10207 10205 10203 10200 10198 10195 10192 10191 10188 10187 10185 10184 10183 10183 10183 10183 10182 10181 10181 10181 10180 10179 10177 10175 10173 10172 10170 10169 10168 10167 10167 10167 10167 10167 10167 10165 10164 10162 10161 10160 10159 10158 10157 10155 10154 10153 10153 10154 10155 10154 10152 10150 10148 10148 10146 10144 10141 10139 10139 10138 10136 10134 10133 10133 10133 10133 10131 10129 10127 10125 10125
10210 10207 10205 10203 10200 10198 10195 10192 10189 10188 10187 10188 10189 10190 10189 10188 10186 10183 10181 10178 10177 10175 10174 10173 10171 10169 10168 10167 10167 10166 10165 10164 10163 10163 10163 10162 10161 10159 10158 10156 10155 10153 10152 10150 10149 10149 10149 10149 10148 10147 10146 10145 10144 10143 10142 10141 10139 10138 10138 10138 10138 10139 10139 10138 10135 10134 10132 10131 10130 10127 10124 10123 10122 10121 10118 10116 10116 10116 10116 10115 10113 10111 10109 10108 10107
10195 10192 10190 10188 10185 10182 10180 10178 10175 10172 10171 10170 10170 10170 10169 10169 10168 10166 10164 10162 10160 10159 10158 10157 10156 10155 10154 10153 10151 10149 10148 10147 10146 10146 10145 10144 10143 10142 10141 10140 10139 10137 10136 10134 10133 10132 10132 10131 10130 10130 10129 10128 10127 10126 10125 10123 10122 10121 10121 10121 10121 10122 10123 10121 10119 10117 10116 10115 10113 10111 10108 10106 10105 10103 10100 10098 10098 10099 10098 10097 10095 10093 10091 10091 10089
10180 10177 10175 10172 10169 10166 10163 10161 10159 10157 10155 10153 10152 10151 10150 10150 10149 10147 10146 10145 10142 10141 10141 10141 10140 10140 10139 10137 10135 10133 10131 10131 10130 10129 10129 10128 10127 10126 10125 10124 10122 10121 10119 10117 10116 10115 10114 10114 10113 10113 10112 10111 10110 10109 10107 10106 10105 10105 10104 10104 10105 10106 10106 10104 10102 10101 10099 10098 10096 10094 10091 10089 10087 10085 10082 10081 10080 10081 10081 10080 10078 10075 10074 10073 10072
10162 10160 10158 10155 10151 10148 10145 10143 10141 10139 10137 10136 10134 10133 10132 10131 10130 10128 10127 10126 10124 10124 10124 10123 10122 10123 10122 10120 10117 10116 10116 10115 10114 10114 10113 10112 10111 10110 10109 10108 10106 10104 10102 10100 10099 10098 10097 10097 10097 10096 10095 10094 10093 10092 10090 10089 10088 10088 10087 10087 10088 10088 10088 10087 10085 10084 10083 10081 10080 10077 10075 10072 10070 10068 10065 10064 10063 10063 10063 10062 10059 10057 10057 10056 10054
10144 10142 10139 10137 10133 10130 10128 10125 10122 10120 10118 10117 10116 10115 10114 10113 10111 10109 10108 10106 10105 10105 10105 10104 10104 10104 10103 10101 10100 10100 10100 10099 10099 10099 10098 10097 10095 10094 10093 10092 10090 10088 10086 10084 10082 10081 10081 10081 10080 10079 10078 10077 10076 10075 10073 10072 10071 10071 10070 10070 10071 10071 10070 10069 10068 10067 10066 10065 10062 10060 10057 10055 10053 10051 10049 10047 10047 10046 10046 10044 10041 10040 10040 10039 10037
10127 10125 10121 10117 10114 10112 10109 10107 10104 10101 10098 10097 10096 10095 10094 10094 10092 10091 10089 10087 10086 10086 10086 10086 10086 10085 10083 10082 10083 10083 10082 10082 10082 10082 10081 10080 10079 10077 10076 10075 10074 10072 10069 10067 10066 10065 10065 10064 10063 10062 10062 10061 10060 10058 10057 10055 10055 10054 10053 10053 10054 10053 10052 10052 10052 10051 10050 10047 10045 10043 10040 10038 10036 10034 10032 10031 10030 10030 10029 10026 10023 10022 10022 10021 10020
10112 10108 10103 10098 10095 10092 10089 10087 10085 10082 10080 10078 10076 10075 10074 10074 10073 10072 10071 10069 10068 10067 10067 10067 10067 10065 10064 10065 10065 10064 10064 10065 10065 10064 10063 10062 10061 10060 10059 10058 10057 10055 10052 10050 10049 10049 10049 10048 10047 10046 10045 10045 10044 10042 10040 10039 10038 10037 10037 10037 10036 10036 10035 10036 10035 10034 10033 10030 10028 10026 10023 10020 10019 10017 10016 10015 10014 10013 10011 10008 10007 10006 10005 10004 10002
10094 10090 10085 10080 10076 10073 10070 10067 10065 10062 10060 10058 10057 10057 10055 10054 10054 10054 10052 10051 10050 10049 10048 10048 10047 10046 10046 10047 10047 10046 10046 10046 10046 10046 10045 10044 10043 10043 10042 10040 10039 10037 10035 10034 10033 10033 10033 10031 10030 10029 10029 10028 10027 10025 10024 10023 10022 10021 10021 10020 10019 10019 10019 10019 10019 10018 10016 10013 10011 10009 10006 10004 10003 10001 10000 9999 9997 9995 9993 9992 9991 9990 9988 9986 9984
10074 10071 10066 10062 10058 10054 10051 10048 10045 10042 10040 10039 10038 10039 10039 10038 10037 10036 10034 10033 10032 10031 10031 10030 10029 10028 10028 10028 10028 10028 10027 10026 10026 10026 10026 10026 10026 10025 10024 10022 10021 10019 10018 10018 10018 10017 10016 10015 10014 10013 10012 10012 10010 10009 10007 10006 10005 10004 10004 10003 10002 10003 10003 10003 10002 10000 9998 9995 9994 9992 9990 9988 9986 9985 9984 9982 9979 9977 9976 9975 9975 9974 9972 9968 9965
10054 10050 10046 10043 10040 10036 10033 10029 10026 10024 10022 10020 10019 10020 10022 10022 10021 10019 10018 10016 10015 10014 10013 10013 10012 10011 10011 10010 10010 10009 10008 10007 10007 10007 10007 10007 10007 10007 10006 10004 10003 10002 10002 10001 10001 10000 9999 9998 9997 9997 9996 9995 9994 9992 9990 9988 9987 9986 9986 9987 9986 9986 9986 9986 9984 9982 9979 9977 9976 9974 9973 9972 9970 9968 9967 9964 9962 9961 9959 9959 9959 9957 9955 9951 9948
10037 10032 10028 10024 10020 10018 10016 10012 10008 10006 10005 10004 10003 10004 10006 10007 10005 10003 10002 10001 10000 9999 9998 9996 9995 9994 9993 9993 9992 9991 9991 9990 9990 9990 9990 9990 9990 9989 9989 9987 9986 9986 9985 9985 9984 9983 9983 9982 9981 9980 9980 9979 9977 9974 9972 9970 9970 9969 9969 9970 9971 9970 9969 9968 9966 9964 9962 9959 9957 9956 9956 9954 9952 9951 9949 9947 9945 9944 9944 9944 9943 9941 9938 9935 9932
10020 10017 10013 10007 10002 10000 9999 9996 9992 9990 9988 9988 9989 9989 9990 9991 9989 9987 9987 9986 9985 9985 9983 9981 9979 9979 9977 9976 9976 9975 9975 9974 9975 9974 9974 9974 9973 9972 9972 9971 9971 9970 9969 9968 9967 9967 9966 9965 9965 9964 9964 9962 9959 9956 9954 9954 9953 9953 9953 9954 9955 9955 9953 9952 9949 9946 9944 9941 9939 9938 9937 9936 9934 9933 9931 9928 9927 9928 9929 9929 9927 9925 9922 9920 9918
10007 10004 9999 9993 9988 9985 9982 9980 9978 9975 9972 9972 9975 9976 9975 9976 9974 9971 9971 9972 9971 9970 9969 9966 9965 9964 9963 9962 9961 9960 9959 9959 9959 9959 9958 9958 9957 9957 9956 9956 9956 9954 9953 9953 9951 9950 9949 9949 9948 9947 9946 9944 9941 9939 9938 9937 9937 9937 9937 9937 9939 9939 9938 9936 9933 9929 9926 9924 9922 9921 9919 9918 9917 9915 9912 9909 9910 9912 9913 9912 9910 9908 9907 9906 9903
9994 9991 9987 9981 9976 9972 9969 9966 9964 9962 9958 9957 9960 9962 9960 9960 9959 9957 9956 9956 9956 9955 9954 9953 9952 9951 9949 9948 9947 9945 9944 9944 9943 9943 9943 9942 9942 9942 9942 9941 9939 9938 9938 9937 9935 9934 9934 9933 9932 9930 9929 9927 9925 9922 9921 9921 9921 9921 9921 9922 9922 9921 9921 9921 9918 9914 9909 9906 9905 9904 9902 9901 9900 9897 9893 9892 9893 9895 9896 9896 9894 9893 9892 9891 9886
9979 9977 9974 9970 9965 9960 9957 9954 9952 9950 9948 9945 9946 9947 9945 9945 9944 9943 9942 9941 9940 9939 9939 9938 9938 9937 9935 9934 9932 9931 9930 9930 9929 9928 9928 9928 9928 9927 9926 9925 9923 9922 9922 9921 9920 9919 9918 9917 9916 9915 9913 9911 9909 9907 9906 9906 9906 9906 9906 9906 9906 9905 9904 9904 9902 9899 9895 9892 9889 9887 9885 9884 9883 9880 9878 9877 9877 9878 9879 9880 9880 9879 9878 9873 9865
9962 9960 9959 9958 9954 9949 9946 9943 9940 9939 9939 9936 9935 9933 9931 9931 9930 9929 9928 9926 9925 9924 9923 9922 9922 9921 9921 9920 9918 9917 9917 9916 9916 9915 9914 9914 9913 9912 9910 9909 9908 9908 9907 9907 9906 9905 9904 9903 9901 9900 9898 9897 9894 9892 9891 9892 9892 9891 9891 9891 9890 9889 9888 9887 9885 9883 9882 9879 9876 9872 9869 9867 9866 9865 9863 9862 9861 9861 9863 9865 9865 9864 9862 9855 9849
9946 9944 9943 9942 9939 9935 9933 9931 9929 9928 9928 9926 9924 9922 9919 9918 9917 9916 9914 9913 9911 9910 9909 9908 9907 9906 9905 9905 9903 9903 9903 9902 9902 9902 9900 9900 9899 9897 9896 9896 9895 9895 9894 9893 9893 9891 9890 9889 9887 9885 9884 9882 9880 9878 9877 9877 9877 9877 9876 9876 9876 9875 9873 9871 9870 9869 9867 9865 9862 9858 9855 9851 9850 9850 9850 9848 9847 9846 9846 9848 9848 9846 9843 9839 9836
9932 9930 9929 9930 9926 9919 9915 9915 9915 9916 9916 9913 9910 9908 9906 9905 9904 9904 9902 9901 9900 9899 9897 9896 9895 9893 9892 9891 9889 9889 9889 9888 9888 9887 9886 9886 9885 9884 9883 9882 9882 9881 9881 9880 9879 9877 9876 9874 9873 9872 9870 9868 9866 9865 9864 9863 9863 9863 9862 9861 9861 9860 9858 9856 9856 9854 9853 9851 9847 9844 9841 9838 9836 9837 9837 9836 9834 9832 9830 9831 9830 9827 9826 9824 9823
9922 9918 9916 9916 9914 9908 9903 9900 9900 9901 9902 9901 9898 9895 9892 9890 9890 9890 9889 9889 9888 9887 9886 9884 9883 9882 9881 9879 9878 9877 9876 9876 9875 9874 9874 9873 9872 9871 9871 9870 9869 9868 9867 9866 9864 9862 9861 9860 9859 9858 9856 9854 9853 9852 9851 9850 9849 9849 9848 9847 9847 9846 9844 9843 9842 9841 9838 9836 9833 9831 9828 9826 9825 9825 9824 9822 9821 9818 9816 9815 9813 9812 9811 9811 9809
9913 9909 9906 9904 9901 9897 9893 9889 9887 9887 9888 9887 9886 9884 9880 9878 9877 9876 9875 9875 9874 9873 9873 9872 9871 9870 9869 9868 9867 9866 9865 9864 9863 9862 9862 9861 9860 9860 9859 9858 9856 9855 9853 9852 9850 9849 9848 9847 9846 9844 9843 9841 9840 9839 9838 9837 9836 9836 9835 9833 9832 9832 9831 9830 9829 9827 9824 9821 9819 9817 9816 9815 9814 9812 9811 9809 9806 9804 9802 9800 9799 9799 9799 9797 9796
9902 9898 9896 9893 9890 9887 9883 9879 9876 9876 9875 9873 9872 9871 9868 9866 9865 9864 9862 9862 9861 9860 9859 9859 9858 9857 9856 9855 9854 9853 9852 9852 9851 9850 9849 9848 9847 9847 9845 9844 9843 9841 9840 9839 9838 9837 9836 9834 9833 9831 9829 9828 9828 9827 9826 9825 9823 9822 9821 9820 9820 9819 9818 9817 9816 9814 9811 9809 9807 9805 9804 9803 9801 9799 9797 9795 9792 9790 9789 9788 9787 9787 9786 9785 9783
9893 9888 9885 9882 9880 9878 9874 9870 9866 9865 9864 9862 9861 9860 9857 9854 9853 9852 9851 9850 9849 9848 9847 9846 9845 9844 9843 9842 9841 9840 9839 9838 9837 9836 9835 9834 9833 9832 9831 9831 9829 9828 9828 9827 9826 9825 9824 9822 9820 9818 9816 9816 9816 9815 9814 9811 9810 9809 9809 9808 9807 9805 9804 9803 9803 9802 9800 9798 9796 9794 9792 9790 9788 9785 9783 9781 9779 9777 9776 9776 9775 9774 9774 9773 9771
9884 9880 9876 9873 9870 9867 9864 9860 9857 9855 9854 9853 9851 9849 9847 9844 9842 9841 9840 9839 9838 9836 9835 9834 9833 9831 9830 9829 9828 9827 9826 9825 9824 9823 9822 9821 9821 9820 9819 9818 9817 9816 9816 9815 9814 9813 9811 9810 9808 9806 9805 9805 9804 9803 9800 9799 9798 9798 9797 9795 9794 9792 9791 9791 9791 9790 9788 9787 9785 9783 9780 9778 9775 9772 9770 9769 9767 9765 9764 9763 9762 9760 9759 9758 9756
9874 9870 9867 9864 9861 9857 9853 9850 9847 9845 9844 9843 9842 9840 9837 9835 9833 9831 9830 9828 9827 9826 9824 9823 9822 9821 9820 9818 9817 9816 9815 9814 9813 9812 9811 9810 9810 9809 9808 9807 9806 9805 9805 9804 9803 9802 9800 9798 9797 9795 9794 9793 9792 9790 9788 9788 9788 9787 9784 9782 9781 9780 9779 9779 9778 9778 9777 9776 9774 9772 9769 9766 9764 9762 9760 9758 9756 9755 9753 9751 9749 9746 9745 9743 9742
9863 9860 9858 9856 9853 9849 9845 9841 9838 9836 9834 9833 9832 9830 9828 9826 9824 9822 9820 9818 9817 9816 9814 9813 9812 9811 9809 9808 9807 9805 9804 9803 9802 9801 9801 9800 9799 9798 9797 9796 9795 9795 9794 9793 9792 9790 9788 9787 9786 9784 9783 9782 9780 9778 9778 9778 9777 9775 9772 9770 9769 9769 9768 9768 9767 9766 9766 9766 9764 9761 9758 9756 9754 9752 9751 9749 9746 9744 9742 9740 9737 9734 9733 9732 9730
9853 9851 9848 9846 9843 9840 9836 9833 9831 9828 9826 9823 9822 9820 9818 9817 9815 9813 9811 9810 9808 9806 9805 9803 9802 9801 9799 9798 9796 9795 9794 9793 9792 9791 9790 9789 9788 9787 9786 9786 9785 9784 9783 9782 9780 9778 9777 9777 9776 9774 9772 9771 9769 9767 9768 9768 9765 9762 9761 9760 9759 9758 9758 9757 9756 9756 9756 9755 9753 9750 9748 9746 9745 9743 9741 9738 9736 9734 9732 9729 9727 9724 9723 9721 9719
9844 9842 9838 9835 9833 9831 9828 9825 9823 9820 9817 9815 9813 9811 9810 9808 9806 9804 9802 9801 9799 9797 9796 9794 9793 9791 9789 9788 9787 9785 9784 9783 9782 9781 9780 9779 9778 9777 9776 9776 9775 9773 9772 9771 9770 9768 9768 9767 9766 9764 9762 9761 9758 9757 9757 9756 9753 9752 9751 9751 9750 9749 9748 9747 9746 9746 9746 9744 9741 9739 9738 9736 9734 9733 9731 9728 9725 9723 9721 9719 9716 9714 9713 9710 9709